Year,Month,Day,Hour,Minute,Value (Times are PST for temperature in C)
2012,05,19,00,00,7.60
2012,05,19,00,01,7.50
2012,05,19,00,02,7.50
2012,05,19,00,03,7.40
2012,05,19,00,04,7.30
2012,05,19,00,05,7.30
2012,05,19,00,06,7.30
2012,05,19,00,07,7.20
2012,05,19,00,08,7.20
2012,05,19,00,09,7.20
2012,05,19,00,10,7.10
2012,05,19,00,11,7.10
2012,05,19,00,12,7.10
2012,05,19,00,13,7.10
2012,05,19,00,14,7.10
2012,05,19,00,15,7.10
2012,05,19,00,16,7.00
2012,05,19,00,17,7.00
2012,05,19,00,18,7.00
2012,05,19,00,19,6.90
2012,05,19,00,20,6.80
2012,05,19,00,21,6.80
2012,05,19,00,22,6.80
2012,05,19,00,23,6.70
2012,05,19,00,24,6.70
2012,05,19,00,25,6.60
2012,05,19,00,26,6.60
2012,05,19,00,27,6.60
2012,05,19,00,28,6.60
2012,05,19,00,29,6.60
2012,05,19,00,30,6.60
2012,05,19,00,31,6.60
2012,05,19,00,32,6.60
2012,05,19,00,33,6.60
2012,05,19,00,34,6.60
2012,05,19,00,35,6.60
2012,05,19,00,36,6.50
2012,05,19,00,37,6.40
2012,05,19,00,38,6.40
2012,05,19,00,39,6.40
2012,05,19,00,40,6.40
2012,05,19,00,41,6.40
2012,05,19,00,42,6.30
2012,05,19,00,43,6.30
2012,05,19,00,44,6.20
2012,05,19,00,45,6.20
2012,05,19,00,46,6.10
2012,05,19,00,47,6.00
2012,05,19,00,48,6.00
2012,05,19,00,49,5.90
2012,05,19,00,50,5.90
2012,05,19,00,51,5.90
2012,05,19,00,52,5.90
2012,05,19,00,53,5.90
2012,05,19,00,54,5.90
2012,05,19,00,55,5.90
2012,05,19,00,56,5.80
2012,05,19,00,57,5.70
2012,05,19,00,58,5.70
2012,05,19,00,59,5.70
2012,05,19,01,00,5.60
2012,05,19,01,01,5.60
2012,05,19,01,02,5.60
2012,05,19,01,03,5.60
2012,05,19,01,04,5.60
2012,05,19,01,05,5.60
2012,05,19,01,06,5.60
2012,05,19,01,07,5.60
2012,05,19,01,08,5.60
2012,05,19,01,09,5.60
2012,05,19,01,10,5.60
2012,05,19,01,11,5.50
2012,05,19,01,12,5.50
2012,05,19,01,13,5.50
2012,05,19,01,14,5.50
2012,05,19,01,15,5.40
2012,05,19,01,16,5.40
2012,05,19,01,17,5.40
2012,05,19,01,18,5.40
2012,05,19,01,19,5.30
2012,05,19,01,20,5.30
2012,05,19,01,21,5.40
2012,05,19,01,22,5.40
2012,05,19,01,23,5.40
2012,05,19,01,24,5.40
2012,05,19,01,25,5.40
2012,05,19,01,26,5.30
2012,05,19,01,27,5.30
2012,05,19,01,28,5.30
2012,05,19,01,29,5.30
2012,05,19,01,30,5.20
2012,05,19,01,31,5.20
2012,05,19,01,32,5.20
2012,05,19,01,33,5.20
2012,05,19,01,34,5.20
2012,05,19,01,35,5.20
2012,05,19,01,36,5.20
2012,05,19,01,37,5.10
2012,05,19,01,38,5.10
2012,05,19,01,39,5.10
2012,05,19,01,40,5.10
2012,05,19,01,41,5.10
2012,05,19,01,42,5.10
2012,05,19,01,43,5.10
2012,05,19,01,44,5.10
2012,05,19,01,45,5.10
2012,05,19,01,46,5.10
2012,05,19,01,47,5.10
2012,05,19,01,48,5.10
2012,05,19,01,49,5.10
2012,05,19,01,50,5.10
2012,05,19,01,51,5.10
2012,05,19,01,52,5.10
2012,05,19,01,53,5.10
2012,05,19,01,54,5.10
2012,05,19,01,55,5.10
2012,05,19,01,56,5.10
2012,05,19,01,57,5.00
2012,05,19,01,58,4.90
2012,05,19,01,59,4.90
2012,05,19,02,00,4.90
2012,05,19,02,01,4.80
2012,05,19,02,02,4.80
2012,05,19,02,03,4.80
2012,05,19,02,04,4.70
2012,05,19,02,05,4.70
2012,05,19,02,06,4.70
2012,05,19,02,07,4.60
2012,05,19,02,08,4.60
2012,05,19,02,09,4.60
2012,05,19,02,10,4.60
2012,05,19,02,11,4.60
2012,05,19,02,12,4.60
2012,05,19,02,13,4.60
2012,05,19,02,14,4.60
2012,05,19,02,15,4.60
2012,05,19,02,16,4.60
2012,05,19,02,17,4.60
2012,05,19,02,18,4.60
2012,05,19,02,19,4.60
2012,05,19,02,20,4.60
2012,05,19,02,21,4.60
2012,05,19,02,22,4.60
2012,05,19,02,23,4.60
2012,05,19,02,24,4.60
2012,05,19,02,25,4.60
2012,05,19,02,26,4.60
2012,05,19,02,27,4.60
2012,05,19,02,28,4.60
2012,05,19,02,29,4.60
2012,05,19,02,30,4.60
2012,05,19,02,31,4.60
2012,05,19,02,32,4.60
2012,05,19,02,33,4.60
2012,05,19,02,34,4.50
2012,05,19,02,35,4.50
2012,05,19,02,36,4.50
2012,05,19,02,37,4.50
2012,05,19,02,38,4.50
2012,05,19,02,39,4.50
2012,05,19,02,40,4.50
2012,05,19,02,41,4.50
2012,05,19,02,42,4.50
2012,05,19,02,43,4.60
2012,05,19,02,44,4.60
2012,05,19,02,45,4.60
2012,05,19,02,46,4.60
2012,05,19,02,47,4.60
2012,05,19,02,48,4.60
2012,05,19,02,49,4.60
2012,05,19,02,50,4.60
2012,05,19,02,51,4.60
2012,05,19,02,52,4.60
2012,05,19,02,53,4.60
2012,05,19,02,54,4.60
2012,05,19,02,55,4.60
2012,05,19,02,56,4.60
2012,05,19,02,57,4.60
2012,05,19,02,58,4.60
2012,05,19,02,59,4.50
2012,05,19,03,00,4.50
2012,05,19,03,01,4.50
2012,05,19,03,02,4.40
2012,05,19,03,03,4.40
2012,05,19,03,04,4.40
2012,05,19,03,05,4.30
2012,05,19,03,06,4.30
2012,05,19,03,07,4.30
2012,05,19,03,08,4.20
2012,05,19,03,09,4.20
2012,05,19,03,10,4.20
2012,05,19,03,11,4.20
2012,05,19,03,12,4.30
2012,05,19,03,13,4.30
2012,05,19,03,14,4.30
2012,05,19,03,15,4.30
2012,05,19,03,16,4.30
2012,05,19,03,17,4.30
2012,05,19,03,18,4.30
2012,05,19,03,19,4.30
2012,05,19,03,20,4.20
2012,05,19,03,21,4.20
2012,05,19,03,22,4.20
2012,05,19,03,23,4.20
2012,05,19,03,24,4.20
2012,05,19,03,25,4.20
2012,05,19,03,26,4.10
2012,05,19,03,27,4.10
2012,05,19,03,28,4.10
2012,05,19,03,29,4.10
2012,05,19,03,30,4.10
2012,05,19,03,31,4.10
2012,05,19,03,32,4.10
2012,05,19,03,33,4.00
2012,05,19,03,34,4.00
2012,05,19,03,35,4.00
2012,05,19,03,36,4.00
2012,05,19,03,37,4.00
2012,05,19,03,38,4.00
2012,05,19,03,39,4.00
2012,05,19,03,40,4.00
2012,05,19,03,41,4.00
2012,05,19,03,42,4.00
2012,05,19,03,43,4.00
2012,05,19,03,44,4.00
2012,05,19,03,45,4.00
2012,05,19,03,46,3.90
2012,05,19,03,47,3.90
2012,05,19,03,48,3.90
2012,05,19,03,49,3.80
2012,05,19,03,50,3.80
2012,05,19,03,51,3.80
2012,05,19,03,52,3.80
2012,05,19,03,53,3.80
2012,05,19,03,54,3.80
2012,05,19,03,55,3.80
2012,05,19,03,56,3.80
2012,05,19,03,57,3.80
2012,05,19,03,58,3.80
2012,05,19,03,59,3.80
2012,05,19,04,00,3.80
2012,05,19,04,01,3.80
2012,05,19,04,02,3.70
2012,05,19,04,03,3.70
2012,05,19,04,04,3.70
2012,05,19,04,05,3.60
2012,05,19,04,06,3.60
2012,05,19,04,07,3.60
2012,05,19,04,08,3.60
2012,05,19,04,09,3.60
2012,05,19,04,10,3.60
2012,05,19,04,11,3.60
2012,05,19,04,12,3.60
2012,05,19,04,13,3.50
2012,05,19,04,14,3.50
2012,05,19,04,15,3.50
2012,05,19,04,16,3.50
2012,05,19,04,17,3.50
2012,05,19,04,18,3.50
2012,05,19,04,19,3.40
2012,05,19,04,20,3.40
2012,05,19,04,21,3.40
2012,05,19,04,22,3.40
2012,05,19,04,23,3.40
2012,05,19,04,24,3.40
2012,05,19,04,25,3.40
2012,05,19,04,26,3.40
2012,05,19,04,27,3.40
2012,05,19,04,28,3.40
2012,05,19,04,29,3.40
2012,05,19,04,30,3.40
2012,05,19,04,31,3.30
2012,05,19,04,32,3.30
2012,05,19,04,33,3.30
2012,05,19,04,34,3.30
2012,05,19,04,35,3.30
2012,05,19,04,36,3.30
2012,05,19,04,37,3.30
2012,05,19,04,38,3.30
2012,05,19,04,39,3.30
2012,05,19,04,40,3.30
2012,05,19,04,41,3.30
2012,05,19,04,42,3.30
2012,05,19,04,43,3.30
2012,05,19,04,44,3.30
2012,05,19,04,45,3.30
2012,05,19,04,46,3.30
2012,05,19,04,47,3.30
2012,05,19,04,48,3.30
2012,05,19,04,49,3.30
2012,05,19,04,50,3.20
2012,05,19,04,51,3.20
2012,05,19,04,52,3.20
2012,05,19,04,53,3.20
2012,05,19,04,54,3.20
2012,05,19,04,55,3.20
2012,05,19,04,56,3.20
2012,05,19,04,57,3.20
2012,05,19,04,58,3.20
2012,05,19,04,59,3.20
2012,05,19,05,00,3.20
2012,05,19,05,01,3.20
2012,05,19,05,02,3.20
2012,05,19,05,03,3.10
2012,05,19,05,04,3.10
2012,05,19,05,05,3.10
2012,05,19,05,06,3.10
2012,05,19,05,07,3.10
2012,05,19,05,08,3.10
2012,05,19,05,09,3.10
2012,05,19,05,10,3.10
2012,05,19,05,11,3.10
2012,05,19,05,12,3.10
2012,05,19,05,13,3.10
2012,05,19,05,14,3.10
2012,05,19,05,15,3.10
2012,05,19,05,16,3.10
2012,05,19,05,17,3.10
2012,05,19,05,18,3.10
2012,05,19,05,19,3.10
2012,05,19,05,20,3.10
2012,05,19,05,21,3.10
2012,05,19,05,22,3.10
2012,05,19,05,23,3.10
2012,05,19,05,24,3.10
2012,05,19,05,25,3.00
2012,05,19,05,26,2.90
2012,05,19,05,27,2.90
2012,05,19,05,28,2.90
2012,05,19,05,29,2.80
2012,05,19,05,30,2.80
2012,05,19,05,31,2.80
2012,05,19,05,32,2.80
2012,05,19,05,33,2.80
2012,05,19,05,34,2.90
2012,05,19,05,35,2.90
2012,05,19,05,36,2.90
2012,05,19,05,37,2.90
2012,05,19,05,38,2.90
2012,05,19,05,39,2.90
2012,05,19,05,40,2.90
2012,05,19,05,41,2.90
2012,05,19,05,42,2.90
2012,05,19,05,43,2.90
2012,05,19,05,44,2.90
2012,05,19,05,45,2.90
2012,05,19,05,46,2.90
2012,05,19,05,47,2.90
2012,05,19,05,48,2.90
2012,05,19,05,49,2.90
2012,05,19,05,50,2.90
2012,05,19,05,51,2.90
2012,05,19,05,52,2.90
2012,05,19,05,53,2.90
2012,05,19,05,54,2.90
2012,05,19,05,55,2.90
2012,05,19,05,56,2.90
2012,05,19,05,57,2.90
2012,05,19,05,58,2.90
2012,05,19,05,59,2.90
2012,05,19,06,00,2.90
2012,05,19,06,01,2.90
2012,05,19,06,02,2.90
2012,05,19,06,03,2.90
2012,05,19,06,04,2.90
2012,05,19,06,05,2.90
2012,05,19,06,06,2.90
2012,05,19,06,07,2.90
2012,05,19,06,08,2.90
2012,05,19,06,09,3.00
2012,05,19,06,10,3.00
2012,05,19,06,11,3.10
2012,05,19,06,12,3.10
2012,05,19,06,13,3.10
2012,05,19,06,14,3.10
2012,05,19,06,15,3.10
2012,05,19,06,16,3.10
2012,05,19,06,17,3.10
2012,05,19,06,18,3.20
2012,05,19,06,19,3.20
2012,05,19,06,20,3.20
2012,05,19,06,21,3.30
2012,05,19,06,22,3.30
2012,05,19,06,23,3.30
2012,05,19,06,24,3.40
2012,05,19,06,25,3.40
2012,05,19,06,26,3.50
2012,05,19,06,27,3.60
2012,05,19,06,28,3.60
2012,05,19,06,29,3.70
2012,05,19,06,30,3.80
2012,05,19,06,31,3.80
2012,05,19,06,32,3.90
2012,05,19,06,33,4.00
2012,05,19,06,34,4.00
2012,05,19,06,35,4.00
2012,05,19,06,36,4.10
2012,05,19,06,37,4.20
2012,05,19,06,38,4.30
2012,05,19,06,39,4.40
2012,05,19,06,40,4.50
2012,05,19,06,41,4.60
2012,05,19,06,42,4.60
2012,05,19,06,43,4.60
2012,05,19,06,44,4.70
2012,05,19,06,45,4.80
2012,05,19,06,46,4.80
2012,05,19,06,47,4.90
2012,05,19,06,48,4.90
2012,05,19,06,49,4.90
2012,05,19,06,50,5.00
2012,05,19,06,51,5.10
2012,05,19,06,52,5.10
2012,05,19,06,53,5.10
2012,05,19,06,54,5.20
2012,05,19,06,55,5.30
2012,05,19,06,56,5.40
2012,05,19,06,57,5.50
2012,05,19,06,58,5.70
2012,05,19,06,59,5.80
2012,05,19,07,00,5.90
2012,05,19,07,01,6.00
2012,05,19,07,02,6.20
2012,05,19,07,03,6.30
2012,05,19,07,04,6.30
2012,05,19,07,05,6.50
2012,05,19,07,06,6.60
2012,05,19,07,07,6.60
2012,05,19,07,08,6.70
2012,05,19,07,09,6.70
2012,05,19,07,10,6.70
2012,05,19,07,11,6.80
2012,05,19,07,12,6.80
2012,05,19,07,13,6.80
2012,05,19,07,14,6.90
2012,05,19,07,15,7.00
2012,05,19,07,16,7.00
2012,05,19,07,17,7.10
2012,05,19,07,18,7.30
2012,05,19,07,19,7.40
2012,05,19,07,20,7.60
2012,05,19,07,21,7.70
2012,05,19,07,22,7.80
2012,05,19,07,23,7.90
2012,05,19,07,24,8.10
2012,05,19,07,25,8.20
2012,05,19,07,26,8.30
2012,05,19,07,27,8.50
2012,05,19,07,28,8.60
2012,05,19,07,29,8.80
2012,05,19,07,30,8.90
2012,05,19,07,31,9.00
2012,05,19,07,32,9.10
2012,05,19,07,33,9.20
2012,05,19,07,34,9.20
2012,05,19,07,35,9.20
2012,05,19,07,36,9.20
2012,05,19,07,37,9.30
2012,05,19,07,38,9.30
2012,05,19,07,39,9.30
2012,05,19,07,40,9.40
2012,05,19,07,41,9.40
2012,05,19,07,42,9.50
2012,05,19,07,43,9.60
2012,05,19,07,44,9.60
2012,05,19,07,45,9.70
2012,05,19,07,46,9.70
2012,05,19,07,47,9.80
2012,05,19,07,48,9.90
2012,05,19,07,49,9.90
2012,05,19,07,50,10.10
2012,05,19,07,51,10.10
2012,05,19,07,52,10.10
2012,05,19,07,53,10.10
2012,05,19,07,54,10.10
2012,05,19,07,55,10.10
2012,05,19,07,56,10.10
2012,05,19,07,57,10.00
2012,05,19,07,58,9.90
2012,05,19,07,59,10.10
2012,05,19,08,00,10.10
2012,05,19,08,01,10.10
2012,05,19,08,02,10.10
2012,05,19,08,03,10.10
2012,05,19,08,04,10.10
2012,05,19,08,05,10.10
2012,05,19,08,06,10.10
2012,05,19,08,07,10.10
2012,05,19,08,08,10.10
2012,05,19,08,09,10.10
2012,05,19,08,10,10.10
2012,05,19,08,11,10.10
2012,05,19,08,12,10.10
2012,05,19,08,13,10.20
2012,05,19,08,14,10.20
2012,05,19,08,15,10.30
2012,05,19,08,16,10.30
2012,05,19,08,17,10.40
2012,05,19,08,18,10.40
2012,05,19,08,19,10.40
2012,05,19,08,20,10.40
2012,05,19,08,21,10.40
2012,05,19,08,22,10.40
2012,05,19,08,23,10.40
2012,05,19,08,24,10.40
2012,05,19,08,25,10.40
2012,05,19,08,26,10.40
2012,05,19,08,27,10.40
2012,05,19,08,28,10.40
2012,05,19,08,29,10.40
2012,05,19,08,30,10.40
2012,05,19,08,31,10.40
2012,05,19,08,32,10.50
2012,05,19,08,33,10.60
2012,05,19,08,34,10.60
2012,05,19,08,35,10.60
2012,05,19,08,36,10.60
2012,05,19,08,37,10.60
2012,05,19,08,38,10.60
2012,05,19,08,39,10.60
2012,05,19,08,40,10.60
2012,05,19,08,41,10.60
2012,05,19,08,42,10.60
2012,05,19,08,43,10.60
2012,05,19,08,44,10.60
2012,05,19,08,45,10.60
2012,05,19,08,46,10.60
2012,05,19,08,47,10.60
2012,05,19,08,48,10.60
2012,05,19,08,49,10.60
2012,05,19,08,50,10.60
2012,05,19,08,51,10.70
2012,05,19,08,52,10.70
2012,05,19,08,53,10.70
2012,05,19,08,54,10.70
2012,05,19,08,55,10.60
2012,05,19,08,56,10.60
2012,05,19,08,57,10.60
2012,05,19,08,58,10.60
2012,05,19,08,59,10.60
2012,05,19,09,00,10.60
2012,05,19,09,01,10.60
2012,05,19,09,02,10.60
2012,05,19,09,03,10.50
2012,05,19,09,04,10.40
2012,05,19,09,05,10.40
2012,05,19,09,06,10.40
2012,05,19,09,07,10.50
2012,05,19,09,08,10.60
2012,05,19,09,09,10.60
2012,05,19,09,10,10.60
2012,05,19,09,11,10.50
2012,05,19,09,12,10.40
2012,05,19,09,13,10.50
2012,05,19,09,14,10.60
2012,05,19,09,15,10.50
2012,05,19,09,16,10.40
2012,05,19,09,17,10.40
2012,05,19,09,18,10.40
2012,05,19,09,19,10.50
2012,05,19,09,20,10.60
2012,05,19,09,21,10.60
2012,05,19,09,22,10.70
2012,05,19,09,23,10.80
2012,05,19,09,24,10.80
2012,05,19,09,25,10.90
2012,05,19,09,26,10.90
2012,05,19,09,27,10.90
2012,05,19,09,28,10.90
2012,05,19,09,29,10.90
2012,05,19,09,30,10.90
2012,05,19,09,31,11.00
2012,05,19,09,32,11.10
2012,05,19,09,33,11.10
2012,05,19,09,34,11.10
2012,05,19,09,35,11.10
2012,05,19,09,36,11.10
2012,05,19,09,37,11.10
2012,05,19,09,38,11.10
2012,05,19,09,39,11.10
2012,05,19,09,40,11.10
2012,05,19,09,41,11.10
2012,05,19,09,42,11.10
2012,05,19,09,43,11.10
2012,05,19,09,44,11.10
2012,05,19,09,45,11.10
2012,05,19,09,46,11.10
2012,05,19,09,47,11.10
2012,05,19,09,48,11.20
2012,05,19,09,49,11.20
2012,05,19,09,50,11.20
2012,05,19,09,51,11.20
2012,05,19,09,52,11.10
2012,05,19,09,53,11.10
2012,05,19,09,54,11.10
2012,05,19,09,55,11.10
2012,05,19,09,56,11.10
2012,05,19,09,57,11.10
2012,05,19,09,58,11.10
2012,05,19,09,59,11.10
2012,05,19,10,00,11.10
2012,05,19,10,01,11.10
2012,05,19,10,02,11.10
2012,05,19,10,03,11.10
2012,05,19,10,04,11.20
2012,05,19,10,05,11.30
2012,05,19,10,06,11.30
2012,05,19,10,07,11.40
2012,05,19,10,08,11.40
2012,05,19,10,09,11.60
2012,05,19,10,10,11.60
2012,05,19,10,11,11.60
2012,05,19,10,12,11.70
2012,05,19,10,13,11.70
2012,05,19,10,14,11.60
2012,05,19,10,15,11.60
2012,05,19,10,16,11.60
2012,05,19,10,17,11.60
2012,05,19,10,18,11.60
2012,05,19,10,19,11.60
2012,05,19,10,20,11.70
2012,05,19,10,21,11.80
2012,05,19,10,22,11.80
2012,05,19,10,23,11.90
2012,05,19,10,24,11.90
2012,05,19,10,25,12.00
2012,05,19,10,26,12.00
2012,05,19,10,27,12.00
2012,05,19,10,28,12.00
2012,05,19,10,29,12.00
2012,05,19,10,30,12.00
2012,05,19,10,31,11.90
2012,05,19,10,32,11.90
2012,05,19,10,33,11.80
2012,05,19,10,34,11.80
2012,05,19,10,35,11.80
2012,05,19,10,36,11.80
2012,05,19,10,37,11.80
2012,05,19,10,38,11.80
2012,05,19,10,39,11.80
2012,05,19,10,40,11.80
2012,05,19,10,41,11.80
2012,05,19,10,42,11.80
2012,05,19,10,43,11.80
2012,05,19,10,44,11.80
2012,05,19,10,45,11.80
2012,05,19,10,46,11.80
2012,05,19,10,47,11.80
2012,05,19,10,48,11.80
2012,05,19,10,49,11.80
2012,05,19,10,50,11.80
2012,05,19,10,51,11.80
2012,05,19,10,52,11.80
2012,05,19,10,53,11.80
2012,05,19,10,54,11.90
2012,05,19,10,55,12.00
2012,05,19,10,56,12.00
2012,05,19,10,57,12.10
2012,05,19,10,58,12.20
2012,05,19,10,59,12.30
2012,05,19,11,00,12.30
2012,05,19,11,01,12.30
2012,05,19,11,02,12.40
2012,05,19,11,03,12.40
2012,05,19,11,04,12.50
2012,05,19,11,05,12.60
2012,05,19,11,06,12.60
2012,05,19,11,07,12.50
2012,05,19,11,08,12.60
2012,05,19,11,09,12.60
2012,05,19,11,10,12.60
2012,05,19,11,11,12.70
2012,05,19,11,12,12.70
2012,05,19,11,13,12.80
2012,05,19,11,14,12.80
2012,05,19,11,15,12.80
2012,05,19,11,16,12.80
2012,05,19,11,17,12.90
2012,05,19,11,18,12.90
2012,05,19,11,19,13.00
2012,05,19,11,20,13.00
2012,05,19,11,21,13.10
2012,05,19,11,22,13.20
2012,05,19,11,23,13.30
2012,05,19,11,24,13.20
2012,05,19,11,25,13.20
2012,05,19,11,26,13.10
2012,05,19,11,27,13.00
2012,05,19,11,28,13.00
2012,05,19,11,29,13.00
2012,05,19,11,30,13.00
2012,05,19,11,31,13.00
2012,05,19,11,32,13.00
2012,05,19,11,33,13.10
2012,05,19,11,34,13.20
2012,05,19,11,35,13.30
2012,05,19,11,36,13.30
2012,05,19,11,37,13.30
2012,05,19,11,38,13.30
2012,05,19,11,39,13.30
2012,05,19,11,40,13.30
2012,05,19,11,41,13.30
2012,05,19,11,42,13.30
2012,05,19,11,43,13.30
2012,05,19,11,44,13.40
2012,05,19,11,45,13.50
2012,05,19,11,46,13.50
2012,05,19,11,47,13.50
2012,05,19,11,48,13.50
2012,05,19,11,49,13.50
2012,05,19,11,50,13.60
2012,05,19,11,51,13.70
2012,05,19,11,52,13.70
2012,05,19,11,53,13.70
2012,05,19,11,54,13.80
2012,05,19,11,55,13.90
2012,05,19,11,56,14.00
2012,05,19,11,57,14.10
2012,05,19,11,58,14.00
2012,05,19,11,59,14.10
2012,05,19,12,00,14.20
2012,05,19,12,01,14.10
2012,05,19,12,02,14.10
2012,05,19,12,03,14.10
2012,05,19,12,04,14.10
2012,05,19,12,05,14.20
2012,05,19,12,06,14.20
2012,05,19,12,07,14.20
2012,05,19,12,08,14.20
2012,05,19,12,09,14.20
2012,05,19,12,10,14.20
2012,05,19,12,11,14.20
2012,05,19,12,12,14.30
2012,05,19,12,13,14.40
2012,05,19,12,14,14.50
2012,05,19,12,15,14.50
2012,05,19,12,16,14.50
2012,05,19,12,17,14.40
2012,05,19,12,18,14.30
2012,05,19,12,19,14.30
2012,05,19,12,20,14.30
2012,05,19,12,21,14.20
2012,05,19,12,22,14.20
2012,05,19,12,23,14.30
2012,05,19,12,24,14.20
2012,05,19,12,25,14.20
2012,05,19,12,26,14.20
2012,05,19,12,27,14.20
2012,05,19,12,28,14.10
2012,05,19,12,29,14.10
2012,05,19,12,30,14.10
2012,05,19,12,31,14.20
2012,05,19,12,32,14.20
2012,05,19,12,33,14.30
2012,05,19,12,34,14.40
2012,05,19,12,35,14.40
2012,05,19,12,36,14.40
2012,05,19,12,37,14.30
2012,05,19,12,38,14.30
2012,05,19,12,39,14.30
2012,05,19,12,40,14.40
2012,05,19,12,41,14.30
2012,05,19,12,42,14.30
2012,05,19,12,43,14.40
2012,05,19,12,44,14.40
2012,05,19,12,45,14.40
2012,05,19,12,46,14.40
2012,05,19,12,47,14.40
2012,05,19,12,48,14.40
2012,05,19,12,49,14.20
2012,05,19,12,50,14.20
2012,05,19,12,51,14.10
2012,05,19,12,52,14.00
2012,05,19,12,53,14.00
2012,05,19,12,54,13.90
2012,05,19,12,55,13.90
2012,05,19,12,56,14.00
2012,05,19,12,57,14.10
2012,05,19,12,58,14.20
2012,05,19,12,59,14.30
2012,05,19,13,00,14.40
2012,05,19,13,01,14.50
2012,05,19,13,02,14.50
2012,05,19,13,03,14.50
2012,05,19,13,04,14.60
2012,05,19,13,05,14.60
2012,05,19,13,06,14.50
2012,05,19,13,07,14.50
2012,05,19,13,08,14.40
2012,05,19,13,09,14.40
2012,05,19,13,10,14.40
2012,05,19,13,11,14.50
2012,05,19,13,12,14.60
2012,05,19,13,13,14.70
2012,05,19,13,14,14.80
2012,05,19,13,15,14.80
2012,05,19,13,16,14.80
2012,05,19,13,17,14.80
2012,05,19,13,18,14.80
2012,05,19,13,19,14.80
2012,05,19,13,20,14.80
2012,05,19,13,21,14.80
2012,05,19,13,22,14.80
2012,05,19,13,23,14.80
2012,05,19,13,24,14.90
2012,05,19,13,25,15.00
2012,05,19,13,26,15.00
2012,05,19,13,27,15.10
2012,05,19,13,28,15.00
2012,05,19,13,29,15.00
2012,05,19,13,30,15.00
2012,05,19,13,31,15.10
2012,05,19,13,32,15.20
2012,05,19,13,33,15.30
2012,05,19,13,34,15.30
2012,05,19,13,35,15.20
2012,05,19,13,36,15.20
2012,05,19,13,37,15.30
2012,05,19,13,38,15.20
2012,05,19,13,39,15.10
2012,05,19,13,40,15.10
2012,05,19,13,41,15.10
2012,05,19,13,42,15.10
2012,05,19,13,43,15.20
2012,05,19,13,44,15.30
2012,05,19,13,45,15.50
2012,05,19,13,46,15.50
2012,05,19,13,47,15.60
2012,05,19,13,48,15.60
2012,05,19,13,49,15.60
2012,05,19,13,50,15.60
2012,05,19,13,51,15.60
2012,05,19,13,52,15.70
2012,05,19,13,53,15.50
2012,05,19,13,54,15.40
2012,05,19,13,55,15.40
2012,05,19,13,56,15.50
2012,05,19,13,57,15.40
2012,05,19,13,58,15.40
2012,05,19,13,59,15.40
2012,05,19,14,00,15.50
2012,05,19,14,01,15.50
2012,05,19,14,02,15.60
2012,05,19,14,03,15.80
2012,05,19,14,04,15.80
2012,05,19,14,05,15.80
2012,05,19,14,06,15.80
2012,05,19,14,07,15.80
2012,05,19,14,08,15.80
2012,05,19,14,09,15.80
2012,05,19,14,10,15.80
2012,05,19,14,11,15.80
2012,05,19,14,12,15.80
2012,05,19,14,13,15.90
2012,05,19,14,14,16.10
2012,05,19,14,15,16.10
2012,05,19,14,16,16.00
2012,05,19,14,17,15.90
2012,05,19,14,18,16.00
2012,05,19,14,19,16.10
2012,05,19,14,20,16.30
2012,05,19,14,21,16.50
2012,05,19,14,22,16.60
2012,05,19,14,23,16.60
2012,05,19,14,24,16.60
2012,05,19,14,25,16.60
2012,05,19,14,26,16.60
2012,05,19,14,27,16.70
2012,05,19,14,28,16.70
2012,05,19,14,29,16.70
2012,05,19,14,30,16.70
2012,05,19,14,31,16.60
2012,05,19,14,32,16.50
2012,05,19,14,33,16.40
2012,05,19,14,34,16.40
2012,05,19,14,35,16.30
2012,05,19,14,36,16.20
2012,05,19,14,37,16.10
2012,05,19,14,38,16.00
2012,05,19,14,39,15.80
2012,05,19,14,40,15.80
2012,05,19,14,41,15.90
2012,05,19,14,42,16.00
2012,05,19,14,43,16.10
2012,05,19,14,44,16.10
2012,05,19,14,45,16.10
2012,05,19,14,46,16.10
2012,05,19,14,47,16.10
2012,05,19,14,48,16.10
2012,05,19,14,49,16.10
2012,05,19,14,50,16.10
2012,05,19,14,51,16.10
2012,05,19,14,52,16.10
2012,05,19,14,53,16.20
2012,05,19,14,54,16.30
2012,05,19,14,55,16.40
2012,05,19,14,56,16.40
2012,05,19,14,57,16.40
2012,05,19,14,58,16.30
2012,05,19,14,59,16.30
2012,05,19,15,00,16.40
2012,05,19,15,01,16.40
2012,05,19,15,02,16.40
2012,05,19,15,03,16.40
2012,05,19,15,04,16.40
2012,05,19,15,05,16.50
2012,05,19,15,06,16.60
2012,05,19,15,07,16.70
2012,05,19,15,08,16.70
2012,05,19,15,09,16.70
2012,05,19,15,10,16.70
2012,05,19,15,11,16.70
2012,05,19,15,12,16.70
2012,05,19,15,13,16.90
2012,05,19,15,14,17.00
2012,05,19,15,15,17.10
2012,05,19,15,16,17.30
2012,05,19,15,17,17.30
2012,05,19,15,18,17.30
2012,05,19,15,19,17.30
2012,05,19,15,20,17.20
2012,05,19,15,21,17.10
2012,05,19,15,22,17.10
2012,05,19,15,23,17.10
2012,05,19,15,24,17.20
2012,05,19,15,25,17.20
2012,05,19,15,26,17.20
2012,05,19,15,27,17.20
2012,05,19,15,28,17.10
2012,05,19,15,29,17.10
2012,05,19,15,30,17.10
2012,05,19,15,31,17.10
2012,05,19,15,32,17.20
2012,05,19,15,33,17.20
2012,05,19,15,34,17.30
2012,05,19,15,35,17.30
2012,05,19,15,36,17.30
2012,05,19,15,37,17.30
2012,05,19,15,38,17.20
2012,05,19,15,39,17.10
2012,05,19,15,40,17.00
2012,05,19,15,41,17.00
2012,05,19,15,42,17.00
2012,05,19,15,43,17.00
2012,05,19,15,44,17.10
2012,05,19,15,45,17.10
2012,05,19,15,46,17.20
2012,05,19,15,47,17.30
2012,05,19,15,48,17.30
2012,05,19,15,49,17.30
2012,05,19,15,50,17.30
2012,05,19,15,51,17.30
2012,05,19,15,52,17.30
2012,05,19,15,53,17.10
2012,05,19,15,54,17.00
2012,05,19,15,55,16.90
2012,05,19,15,56,17.00
2012,05,19,15,57,17.10
2012,05,19,15,58,17.10
2012,05,19,15,59,17.00
2012,05,19,16,00,17.00
2012,05,19,16,01,17.00
2012,05,19,16,02,17.10
2012,05,19,16,03,17.10
2012,05,19,16,04,17.00
2012,05,19,16,05,17.00
2012,05,19,16,06,16.90
2012,05,19,16,07,17.00
2012,05,19,16,08,17.00
2012,05,19,16,09,17.10
2012,05,19,16,10,17.30
2012,05,19,16,11,17.30
2012,05,19,16,12,17.30
2012,05,19,16,13,17.30
2012,05,19,16,14,17.30
2012,05,19,16,15,17.30
2012,05,19,16,16,17.20
2012,05,19,16,17,17.10
2012,05,19,16,18,17.00
2012,05,19,16,19,17.00
2012,05,19,16,20,17.20
2012,05,19,16,21,17.30
2012,05,19,16,22,17.30
2012,05,19,16,23,17.20
2012,05,19,16,24,17.10
2012,05,19,16,25,17.00
2012,05,19,16,26,17.00
2012,05,19,16,27,16.90
2012,05,19,16,28,16.90
2012,05,19,16,29,16.80
2012,05,19,16,30,16.70
2012,05,19,16,31,16.70
2012,05,19,16,32,16.70
2012,05,19,16,33,16.70
2012,05,19,16,34,16.70
2012,05,19,16,35,16.70
2012,05,19,16,36,16.80
2012,05,19,16,37,16.80
2012,05,19,16,38,16.80
2012,05,19,16,39,16.80
2012,05,19,16,40,16.80
2012,05,19,16,41,16.80
2012,05,19,16,42,16.80
2012,05,19,16,43,16.70
2012,05,19,16,44,16.80
2012,05,19,16,45,16.80
2012,05,19,16,46,16.80
2012,05,19,16,47,16.80
2012,05,19,16,48,16.80
2012,05,19,16,49,16.80
2012,05,19,16,50,16.80
2012,05,19,16,51,16.80
2012,05,19,16,52,16.80
2012,05,19,16,53,16.80
2012,05,19,16,54,16.80
2012,05,19,16,55,16.80
2012,05,19,16,56,16.80
2012,05,19,16,57,16.80
2012,05,19,16,58,16.90
2012,05,19,16,59,16.80
2012,05,19,17,00,16.70
2012,05,19,17,01,16.70
2012,05,19,17,02,16.60
2012,05,19,17,03,16.60
2012,05,19,17,04,16.60
2012,05,19,17,05,16.70
2012,05,19,17,06,16.70
2012,05,19,17,07,16.70
2012,05,19,17,08,16.70
2012,05,19,17,09,16.70
2012,05,19,17,10,16.70
2012,05,19,17,11,16.70
2012,05,19,17,12,16.70
2012,05,19,17,13,16.80
2012,05,19,17,14,16.80
2012,05,19,17,15,16.90
2012,05,19,17,16,17.00
2012,05,19,17,17,17.00
2012,05,19,17,18,17.00
2012,05,19,17,19,16.80
2012,05,19,17,20,16.70
2012,05,19,17,21,16.70
2012,05,19,17,22,16.70
2012,05,19,17,23,16.70
2012,05,19,17,24,16.70
2012,05,19,17,25,16.70
2012,05,19,17,26,16.70
2012,05,19,17,27,16.70
2012,05,19,17,28,16.80
2012,05,19,17,29,16.80
2012,05,19,17,30,16.90
2012,05,19,17,31,17.00
2012,05,19,17,32,17.00
2012,05,19,17,33,17.00
2012,05,19,17,34,17.00
2012,05,19,17,35,17.00
2012,05,19,17,36,16.90
2012,05,19,17,37,16.90
2012,05,19,17,38,17.00
2012,05,19,17,39,17.00